Tracking 19245 objects as of 17-Aug-2018
HD Live streaming from Space Station
objects crossing your sky now

FENGYUN 1C DEB

Track FENGYUN 1C DEB now!
10-day predictions


NORAD ID: 33684
Int'l Code: 1999-025DFV
Perigee: 478.0 km
Apogee: 1,095.7 km
Inclination: 99.1 °
Period: 100.4 minutes
Semi major axis: 7157 km
RCS: 0.0093 m2 (small)
Launch date: May 10, 1999
Source: People's Republic of China (PRC)
Launch site: Taiyaun Space Center, China (TSC)

Note: This is SATELLITE DEBRIS
aabbcc
Your satellite tracking list
Your tracking list is empty




NASA's NSSDC Master Catalog

Two Line Element Set (TLE):
1 33684U 99025DFV 18228.38623897 +.00000295 +00000-0 +46969-4 0  9990
2 33684 099.1404 063.6938 0431476 006.4146 354.2320 14.33601634543949
Source of the keplerian elements: AFSPC